Altus, OK

11:11 PM CDT on October 19, 2017 (GMT -0500)
Altus Municipal

Weather History for KAXS - June, 2013

Change the Weather History Date:

Wednesday, June 5, 2013

  Actual Average (KLTS) Record (KLTS)
Temperature  
Mean Temperature 78 °F -  
Max Temperature 89 °F 87 °F 104 °F (2006)
Min Temperature 68 °F 64 °F -39 °F (2007)
Cooling Degree Days 13    
Growing Degree Days 28 (Base 50)    
Moisture  
Dew Point 63 °F    
Average Humidity 59    
Maximum Humidity 79    
Minimum Humidity 41    
Precipitation  
Precipitation 0.02 in - - ()
Sea Level Pressure  
Sea Level Pressure 29.90 in    
Wind  
Wind Speed 16 mph (East)    
Max Wind Speed 26 mph    
Max Gust Speed 32 mph    
Visibility 10 miles    
Events Rain    
Averages and records for this station are not official NWS values.
T = Trace of Precipitation, MM = Missing Value Source: NWS Daily Summary

Daily Weather History Graph

Daily Weather History Graph

Search for Another Location

Airport or City:

Trip Planner

Search our weather history database for the weather conditions in past years. The results will help you decide how hot, cold, wet, or windy it might be!

Date:

Astronomy

Jun. 05, 2013 Rise Set
Actual Time 6:24 AM CDT 8:47 PM CDT
Civil Twilight 5:55 AM CDT 9:17 PM CDT
Nautical Twilight 5:19 AM CDT 9:53 PM CDT
Astronomical Twilight 4:39 AM CDT 10:32 PM CDT
Moon 4:23 AM CDT (6/5) 6:20 PM CDT (6/5)
Length of Visible Light 15h 21m
Length of Day
14h 23m
Waning Crescent, 8% of the Moon is Illuminated
Jun 5
Waning Crescent
Jun 8
New
Jun 16
First Quarter
Jun 23
Full
Jun 29
Last Quarter

Hourly Weather History & Observations

Time (CDT) Temp. Heat Index Dew Point Humidity Pressure Visibility Wind Dir Wind Speed Gust Speed Precip Events Conditions
12:15 AM 78.8 °F - 67.1 °F 67% 29.83 in 10.0 mi ESE 16.1 mph - N/A   Clear
12:35 AM 77.9 °F - 67.1 °F 69% 29.83 in 10.0 mi ESE 17.3 mph - N/A   Clear
12:55 AM 77.7 °F - 67.3 °F 70% 29.82 in 10.0 mi ESE 17.3 mph - N/A   Clear
1:15 AM 77.0 °F - 67.1 °F 71% 29.83 in 10.0 mi ESE 16.1 mph - N/A   Clear
1:35 AM 77.0 °F - 66.9 °F 71% 29.82 in 10.0 mi ESE 15.0 mph - N/A   Clear
1:55 AM 76.5 °F - 66.4 °F 71% 29.82 in 10.0 mi ESE 12.7 mph - N/A   Clear
2:15 AM 76.1 °F - 66.0 °F 71% 29.81 in 10.0 mi ESE 13.8 mph - N/A   Clear
2:35 AM 76.1 °F - 65.5 °F 70% 29.80 in 10.0 mi ESE 16.1 mph - N/A   Clear
2:55 AM 75.7 °F - 65.3 °F 70% 29.80 in 10.0 mi ESE 15.0 mph - N/A   Clear
3:15 AM 75.2 °F - 65.7 °F 72% 29.80 in 10.0 mi East 13.8 mph - N/A   Clear
3:35 AM 74.8 °F - 66.2 °F 74% 29.79 in 10.0 mi ESE 17.3 mph - N/A   Clear
3:55 AM 74.5 °F - 66.2 °F 75% 29.78 in 10.0 mi SE 19.6 mph - N/A   Clear
4:15 AM 74.8 °F - 65.8 °F 73% 29.83 in 10.0 mi NE 15.0 mph - N/A   Clear
4:35 AM 75.0 °F - 66.2 °F 74% 29.84 in 10.0 mi ENE 16.1 mph 21.9 mph N/A   Clear
4:55 AM 75.2 °F - 66.6 °F 74% 29.87 in 10.0 mi ENE 20.7 mph 27.6 mph N/A   Scattered Clouds
5:15 AM 75.6 °F - 66.6 °F 74% 29.88 in 10.0 mi ENE 17.3 mph 24.2 mph N/A   Scattered Clouds
5:35 AM 74.7 °F - 66.2 °F 75% 29.90 in 10.0 mi ENE 16.1 mph 26.5 mph N/A   Mostly Cloudy
5:55 AM 71.4 °F - 61.9 °F 72% 29.93 in 10.0 mi NE 26.5 mph 32.2 mph N/A   Mostly Cloudy
6:15 AM 70.2 °F - 60.4 °F 71% 29.93 in 10.0 mi ENE 16.1 mph 27.6 mph N/A   Mostly Cloudy
6:35 AM 69.8 °F - 59.4 °F 69% 29.93 in 10.0 mi ENE 18.4 mph 25.3 mph N/A   Mostly Cloudy
6:55 AM 70.7 °F - 59.0 °F 66% 29.94 in 10.0 mi ENE 16.1 mph 25.3 mph N/A   Mostly Cloudy
7:15 AM 70.9 °F - 59.0 °F 66% 29.97 in 10.0 mi NE 18.4 mph 23.0 mph N/A   Overcast
7:35 AM 71.2 °F - 58.6 °F 64% 29.99 in 10.0 mi NE 17.3 mph 20.7 mph N/A   Overcast
7:55 AM 70.3 °F - 59.4 °F 68% 30.00 in 10.0 mi NNE 17.3 mph 28.8 mph N/A   Overcast
8:15 AM 68.0 °F - 61.3 °F 79% 30.00 in 7.0 mi NE 13.8 mph 21.9 mph 0.02 in Rain Light Rain
8:35 AM 69.3 °F - 61.2 °F 75% 29.98 in 10.0 mi NE 18.4 mph 21.9 mph 0.02 in   Mostly Cloudy
8:55 AM 69.8 °F - 60.8 °F 73% 29.99 in 10.0 mi NE 13.8 mph - 0.02 in   Mostly Cloudy
9:15 AM 70.2 °F - 61.3 °F 74% 29.97 in 10.0 mi East 16.1 mph 19.6 mph N/A   Mostly Cloudy
9:35 AM 72.5 °F - 60.6 °F 66% 29.97 in 10.0 mi East 19.6 mph 26.5 mph N/A   Clear
9:55 AM 74.8 °F - 59.5 °F 59% 29.96 in 10.0 mi East 20.7 mph 26.5 mph N/A   Clear
10:15 AM 77.9 °F - 58.6 °F 51% 29.95 in 10.0 mi East 19.6 mph 26.5 mph N/A   Clear
10:35 AM 79.5 °F - 58.5 °F 48% 29.96 in 10.0 mi ESE 19.6 mph - N/A   Clear
10:55 AM 80.2 °F 80.8 °F 58.6 °F 48% 29.94 in 10.0 mi ESE 18.4 mph - N/A   Clear
11:15 AM 81.9 °F 81.9 °F 58.8 °F 45% 29.93 in 10.0 mi ESE 19.6 mph - N/A   Clear
11:35 AM 83.7 °F 83.6 °F 59.4 °F 44% 29.93 in 10.0 mi SE 21.9 mph 28.8 mph N/A   Clear
11:55 AM 84.6 °F 84.4 °F 59.5 °F 43% 29.93 in 10.0 mi SE 20.7 mph 27.6 mph N/A   Clear
12:15 PM 84.7 °F 85.0 °F 61.0 °F 45% 29.92 in 10.0 mi SE 19.6 mph - N/A   Clear
12:35 PM 85.5 °F 85.4 °F 60.6 °F 43% 29.92 in 10.0 mi SE 19.6 mph 29.9 mph N/A   Clear
12:55 PM 86.0 °F 86.1 °F 60.8 °F 43% 29.91 in 10.0 mi SE 18.4 mph 27.6 mph N/A   Clear
1:15 PM 86.9 °F 86.7 °F 60.3 °F 41% 29.91 in 10.0 mi SSE 19.6 mph 25.3 mph N/A   Clear
1:35 PM 87.8 °F 87.9 °F 61.5 °F 41% 29.91 in 10.0 mi SE 15.0 mph 23.0 mph N/A   Clear
1:55 PM 88.0 °F 88.1 °F 61.9 °F 41% 29.92 in 10.0 mi ESE 10.4 mph - N/A   Clear
2:15 PM 87.8 °F 88.2 °F 62.1 °F 42% 29.92 in 10.0 mi East 6.9 mph - N/A   Scattered Clouds
2:35 PM 87.3 °F 88.0 °F 63.0 °F 44% 29.92 in 10.0 mi East 11.5 mph - N/A   Scattered Clouds
2:55 PM 85.8 °F 86.6 °F 63.0 °F 46% 29.92 in 10.0 mi East 8.1 mph - N/A   Scattered Clouds
3:15 PM 88.3 °F 88.9 °F 62.8 °F 42% 29.91 in 10.0 mi ENE 6.9 mph - N/A   Scattered Clouds
3:35 PM 86.5 °F 87.6 °F 63.3 °F 46% 29.91 in 10.0 mi ENE 5.8 mph 9.2 mph N/A   Scattered Clouds
3:55 PM 88.5 °F 89.5 °F 63.5 °F 43% 29.91 in 10.0 mi ENE 10.4 mph - N/A   Scattered Clouds
4:15 PM 87.4 °F 88.0 °F 62.6 °F 43% 29.89 in 10.0 mi NNE 16.1 mph 23.0 mph N/A   Clear
4:35 PM 86.7 °F 87.5 °F 63.3 °F 45% 29.88 in 10.0 mi ENE 16.1 mph - N/A   Clear
4:55 PM 87.4 °F 88.2 °F 63.1 °F 44% 29.87 in 10.0 mi ENE 16.1 mph - N/A   Clear
5:15 PM 88.7 °F 89.8 °F 63.5 °F 43% 29.88 in 10.0 mi East 10.4 mph 18.4 mph N/A   Clear
5:35 PM 88.7 °F 89.8 °F 63.7 °F 43% 29.88 in 10.0 mi NE 11.5 mph 18.4 mph N/A   Scattered Clouds
5:55 PM 86.7 °F 88.1 °F 64.0 °F 47% 29.88 in 10.0 mi East 16.1 mph - N/A   Scattered Clouds
6:15 PM 86.9 °F 88.1 °F 64.0 °F 46% 29.87 in 10.0 mi NE 15.0 mph 19.6 mph N/A   Scattered Clouds
6:35 PM 86.7 °F 87.8 °F 63.9 °F 46% 29.87 in 10.0 mi East 16.1 mph 19.6 mph N/A   Scattered Clouds
6:55 PM 85.6 °F 86.6 °F 63.5 °F 47% 29.87 in 10.0 mi ENE 13.8 mph - N/A   Clear
7:15 PM 84.2 °F 85.2 °F 63.3 °F 49% 29.87 in 10.0 mi East 15.0 mph - N/A   Clear
7:35 PM 84.4 °F 85.4 °F 63.5 °F 49% 29.88 in 10.0 mi East 13.8 mph - N/A   Clear
7:55 PM 83.3 °F 84.4 °F 63.5 °F 51% 29.89 in 10.0 mi East 10.4 mph - N/A   Clear
8:15 PM 82.0 °F 83.3 °F 63.5 °F 53% 29.90 in 10.0 mi East 12.7 mph 17.3 mph N/A   Clear
8:35 PM 81.0 °F 82.5 °F 64.0 °F 56% 29.90 in 10.0 mi East 11.5 mph - N/A   Clear
8:55 PM 80.2 °F 81.8 °F 63.9 °F 57% 29.90 in 10.0 mi ENE 12.7 mph - N/A   Clear
9:15 PM 79.3 °F - 63.5 °F 58% 29.91 in 10.0 mi ENE 15.0 mph - N/A   Clear
9:35 PM 78.8 °F - 63.3 °F 59% 29.91 in 10.0 mi NE 16.1 mph 21.9 mph N/A   Clear
9:55 PM 78.3 °F - 62.8 °F 59% 29.92 in 10.0 mi NE 12.7 mph 21.9 mph N/A   Clear
10:15 PM 77.9 °F - 63.3 °F 61% 29.93 in 10.0 mi NE 15.0 mph 19.6 mph N/A   Clear
10:35 PM 77.4 °F - 63.1 °F 61% 29.94 in 10.0 mi NE 17.3 mph 23.0 mph N/A   Scattered Clouds
10:55 PM 75.9 °F - 64.6 °F 68% 29.95 in 10.0 mi NE 21.9 mph 25.3 mph N/A   Scattered Clouds
11:15 PM 74.7 °F - 64.0 °F 69% 29.96 in 10.0 mi NE 20.7 mph 29.9 mph N/A   Scattered Clouds
11:35 PM 73.6 °F - 63.5 °F 71% 29.97 in 10.0 mi NE 21.9 mph - N/A   Scattered Clouds
11:55 PM 73.4 °F - 63.3 °F 71% 29.97 in 10.0 mi NE 17.3 mph 21.9 mph N/A   Scattered Clouds